Weather History for KIXD - October, 2011

Change the Weather History Date:

Friday, October 28, 2011

  Actual Average Record
Temperature  
Mean Temperature 46 °F -  
Max Temperature 63 °F 60 °F 77 °F (1999)
Min Temperature 30 °F 42 °F 28 °F (2008)
Degree Days  
Heating Degree Days 19    
Moisture  
Dew Point 25 °F    
Average Humidity 49    
Maximum Humidity 79    
Minimum Humidity 21    
Precipitation  
Precipitation 0.00 in - - ()
Sea Level Pressure  
Sea Level Pressure 30.21 in    
Wind  
Wind Speed 5 mph (WNW)    
Max Wind Speed 20 mph    
Max Gust Speed 25 mph    
Visibility 10 miles    
Events Rain    
Averages and records for this station are not official NWS values.
T = Trace of Precipitation, MM = Missing Value Source: NWS Daily Summary

Daily Weather History Graph

Daily Weather History Graph

Search for Another Location

Airport or City:

Trip Planner

Search our weather history database for the weather conditions in past years. The results will help you decide how hot, cold, wet, or windy it might be!

Date:

Astronomy

Oct. 28, 2011 Rise Set
Actual Time 7:42 AM CDT 6:24 PM CDT
Civil Twilight 7:14 AM CDT 6:51 PM CDT
Nautical Twilight 6:43 AM CDT 7:22 PM CDT
Astronomical Twilight 6:12 AM CDT 7:53 PM CDT
Moon 9:57 AM CDT (10/28) 7:49 PM CDT (10/28)
Length of Visible Light 11h 36m
Length of Day
10h 41m
Waxing Crescent, 5% of the Moon is Illuminated
Oct 28
Waxing Crescent
Nov 2
First Quarter
Nov 10
Full
Nov 18
Last Quarter
Nov 25
New

Hourly Weather History & Observations

Time (CDT) Temp. Windchill Dew Point Humidity Pressure Visibility Wind Dir Wind Speed Gust Speed Precip Events Conditions
12:53 AM 39.0 °F 36.8 °F 25.0 °F 57% 30.20 in 10.0 mi WNW 3.5 mph - N/A   Clear
1:53 AM 39.0 °F - 25.0 °F 57% 30.20 in 10.0 mi Calm Calm - N/A   Clear
3:53 AM 36.0 °F 32.1 °F 27.0 °F 70% 30.22 in 10.0 mi WNW 4.6 mph - N/A   Clear
4:53 AM 35.1 °F 31.0 °F 25.0 °F 67% 30.22 in 10.0 mi WNW 4.6 mph - N/A   Clear
5:53 AM 36.0 °F - 25.0 °F 64% 30.22 in 10.0 mi Calm Calm - N/A   Clear
6:53 AM 34.0 °F - 26.1 °F 73% 30.22 in 10.0 mi Calm Calm - N/A   Clear
7:53 AM 30.9 °F - 25.0 °F 79% 30.24 in 10.0 mi Calm Calm - N/A   Clear
8:53 AM 36.0 °F - 28.0 °F 73% 30.25 in 10.0 mi Calm Calm - N/A   Clear
9:53 AM 46.9 °F - 30.0 °F 52% 30.26 in 10.0 mi West 5.8 mph - N/A   Clear
10:53 AM 53.1 °F - 26.1 °F 35% 30.25 in 10.0 mi West 11.5 mph - N/A   Clear
12:53 PM 59.0 °F - 23.0 °F 25% 30.22 in 10.0 mi West 13.8 mph 19.6 mph N/A   Clear
1:53 PM 62.1 °F - 23.0 °F 22% 30.17 in 10.0 mi WSW 13.8 mph 19.6 mph N/A   Clear
2:53 PM 62.1 °F - 21.9 °F 21% 30.15 in 10.0 mi West 19.6 mph 25.3 mph 0.00 in   Clear
3:53 PM 61.0 °F - 21.9 °F 22% 30.15 in 10.0 mi WNW 9.2 mph 24.2 mph 0.00 in Rain Light Rain
4:53 PM 60.1 °F - 21.0 °F 22% 30.16 in 10.0 mi NW 13.8 mph - 0.00 in   Clear
5:53 PM 57.0 °F - 21.9 °F 26% 30.17 in 10.0 mi NW 10.4 mph - N/A   Clear
8:53 PM 43.0 °F 39.5 °F 24.1 °F 47% 30.23 in 10.0 mi North 5.8 mph - N/A   Clear
9:53 PM 41.0 °F 38.0 °F 25.0 °F 53% 30.23 in 10.0 mi NNW 4.6 mph - N/A   Clear
10:53 PM 39.0 °F - 25.0 °F 57% 30.23 in 10.0 mi Calm Calm - N/A   Clear
11:53 PM 37.9 °F - 24.1 °F 57% 30.22 in 10.0 mi Calm Calm - N/A   Clear